M I D A S
Marine Information and Data Acquisition System
Tripno 383 of the Zeeleeuw from 2002-07-01 08:04:20 to 2002-07-01 15:46:00
Back to CruiseResearch ActivitiesStationsMapUnderway DataData graphs

EquipmentUnitsComment
TimeDGPSUTC
LatitudeDGPSDM.mWGS84
LongitudeDGPSDM.mWGS84
TemperatureSBE03/SBE38deg celciusITS90
ConductivitySBE21S/mITS90
SalinitySBE21 Practical Salinity Units
ChlorophylAChelsea fluorimeterg/lCalibrated in Aceton
Missing or incorrect values are displayed as -999
Sea surface data collected by the RV Zeeleeuw from 2002-07-01 08:04:20 to 2002-07-01 15:46:00
Time Latitude Longitude Temperature Conductivity Salinity ChlorophylA
2002-07-01 08:05:21 51°13.718 2°55.745 -999 -999 -999  
2002-07-01 08:06:21 51°13.796 2°55.661 -999 -999 -999  
2002-07-01 08:07:21 51°13.883 2°55.597 -999 -999 -999  
2002-07-01 08:08:21 51°13.975 2°55.529 -999 -999 -999  
2002-07-01 08:09:22 51°14.078 2°55.452 -999 -999 -999  
2002-07-01 08:10:21 51°14.178 2°55.363 -999 -999 -999  
2002-07-01 08:11:21 51°14.27 2°55.245 -999 -999 -999  
2002-07-01 08:12:21 51°14.347 2°55.106 -999 -999 -999  
2002-07-01 08:13:21 51°14.418 2°54.96 -999 -999 -999  
2002-07-01 08:14:21 51°14.5 2°54.755 -999 -999 -999  
2002-07-01 08:15:21 51°14.627 2°54.517 -999 -999 -999  
2002-07-01 08:16:21 51°14.747 2°54.242 -999 -999 -999  
2002-07-01 08:17:21 51°14.829 2°53.935 -999 -999 -999  
2002-07-01 08:18:22 51°14.909 2°53.623 -999 -999 -999  
2002-07-01 08:19:21 51°14.99 2°53.312 -999 -999 -999  
2002-07-01 08:20:21 51°15.074 2°52.989 -999 -999 -999  
2002-07-01 08:21:21 51°15.161 2°52.667 -999 -999 -999  
2002-07-01 08:22:21 51°15.247 2°52.342 -999 -999 -999  
2002-07-01 08:23:21 51°15.327 2°52.015 -999 -999 -999  
2002-07-01 08:24:21 51°15.35 2°51.679 -999 -999 -999  
2002-07-01 08:25:21 51°15.304 2°51.347 -999 -999 -999  
2002-07-01 08:26:21 51°15.278 2°51.005 -999 -999 -999  
2002-07-01 08:27:21 51°15.25 2°50.666 -999 -999 -999  
2002-07-01 08:28:22 51°15.213 2°50.327 -999 -999 -999  
2002-07-01 08:29:21 51°15.173 2°50 -999 -999 -999  
2002-07-01 08:30:21 51°15.13 2°49.664 -999 -999 -999  
2002-07-01 08:31:22 51°15.087 2°49.32 -999 -999 -999  
2002-07-01 08:32:21 51°15.045 2°48.987 -999 -999 -999  
2002-07-01 08:33:21 51°15.003 2°48.65 -999 -999 -999  
2002-07-01 08:34:21 51°14.962 2°48.314 -999 -999 -999  
2002-07-01 08:35:21 51°14.931 2°47.974 -999 -999 -999  
2002-07-01 08:36:21 51°14.907 2°47.632 -999 -999 -999  
2002-07-01 08:37:21 51°14.88 2°47.292 -999 -999 -999  
2002-07-01 08:38:21 51°14.852 2°46.951 -999 -999 -999  
2002-07-01 08:39:21 51°14.817 2°46.611 -999 -999 -999  
2002-07-01 08:40:21 51°14.775 2°46.273 -999 -999 -999  
2002-07-01 08:41:21 51°14.736 2°45.932 -999 -999 -999  
2002-07-01 08:42:22 51°14.687 2°45.587 -999 -999 -999  
2002-07-01 08:43:21 51°14.636 2°45.253 -999 -999 -999  
2002-07-01 08:44:21 51°14.588 2°44.914 -999 -999 -999  
2002-07-01 08:45:22 51°14.542 2°44.565 -999 -999 -999  
2002-07-01 08:46:21 51°14.497 2°44.229 -999 -999 -999  
2002-07-01 08:47:21 51°14.452 2°43.89 -999 -999 -999  
2002-07-01 08:48:22 51°14.406 2°43.546 -999 -999 -999  
2002-07-01 08:49:22 51°14.361 2°43.206 -999 -999 -999  
2002-07-01 08:50:21 51°14.317 2°42.872 -999 -999 -999  
2002-07-01 08:51:21 51°14.271 2°42.535 -999 -999 -999  
2002-07-01 08:52:22 51°14.226 2°42.188 -999 -999 -999  
2002-07-01 08:53:21 51°14.182 2°41.861 -999 -999 -999  
2002-07-01 08:54:21 51°14.153 2°41.655 -999 -999 -999  
2002-07-01 08:55:21 51°14.136 2°41.521 -999 -999 -999  
2002-07-01 08:56:21 51°14.119 2°41.416 -999 -999 -999  
2002-07-01 08:57:21 51°14.112 2°41.34 -999 -999 -999  
2002-07-01 08:58:21 51°14.112 2°41.285 -999 -999 -999  
2002-07-01 08:59:21 51°14.115 2°41.239 -999 -999 -999  
2002-07-01 09:00:22 51°14.115 2°41.195 -999 -999 -999  
2002-07-01 09:01:21 51°14.106 2°41.141 -999 -999 -999  
2002-07-01 09:02:21 51°14.1 2°41.075 -999 -999 -999  
2002-07-01 09:03:22 51°14.107 2°41.03 -999 -999 -999  
2002-07-01 09:04:21 51°14.118 2°41.007 -999 -999 -999  
2002-07-01 09:05:21 51°14.133 2°40.991 -999 -999 -999  
2002-07-01 09:06:21 51°14.156 2°40.965 -999 -999 -999  
2002-07-01 09:07:22 51°14.239 2°40.974 -999 -999 -999  
2002-07-01 09:08:21 51°14.221 2°41.105 -999 -999 -999  
2002-07-01 09:09:21 51°14.125 2°41.113 -999 -999 -999  
2002-07-01 09:10:21 51°14.084 2°41.116 -999 -999 -999  
2002-07-01 09:11:21 51°14.08 2°41.125 -999 -999 -999  
2002-07-01 09:12:21 51°14.083 2°41.137 -999 -999 -999  
2002-07-01 09:13:21 51°14.092 2°41.149 -999 -999 -999  
2002-07-01 09:14:22 51°14.102 2°41.161 -999 -999 -999  
2002-07-01 09:15:21 51°14.113 2°41.168 -999 -999 -999  
2002-07-01 09:16:21 51°14.128 2°41.168 -999 -999 -999  
2002-07-01 09:17:21 51°14.144 2°41.165 -999 -999 -999  
2002-07-01 09:18:22 51°14.152 2°41.18 -999 -999 -999  
2002-07-01 09:19:21 51°14.084 2°41.181 -999 -999 -999  
2002-07-01 09:20:21 51°14.063 2°41.099 -999 -999 -999  
2002-07-01 09:21:22 51°14.066 2°41.059 -999 -999 -999  
2002-07-01 09:22:22 51°14.077 2°41.034 -999 -999 -999  
2002-07-01 09:23:22 51°14.091 2°41.016 -999 -999 -999  
2002-07-01 09:24:22 51°14.106 2°41.008 -999 -999 -999  
2002-07-01 09:25:21 51°14.119 2°41.002 -999 -999 -999  
2002-07-01 09:26:22 51°14.132 2°40.997 -999 -999 -999  
2002-07-01 09:27:22 51°14.135 2°41.012 -999 -999 -999  
2002-07-01 09:28:22 51°14.135 2°41.022 -999 -999 -999  
2002-07-01 09:29:22 51°14.142 2°41.027 -999 -999 -999  
2002-07-01 09:30:21 51°14.148 2°41.029 -999 -999 -999  
2002-07-01 09:31:21 51°14.151 2°41.037 -999 -999 -999  
2002-07-01 09:32:22 51°14.152 2°41.048 -999 -999 -999  
2002-07-01 09:33:21 51°14.152 2°41.054 -999 -999 -999  
2002-07-01 09:34:21 51°14.151 2°41.058 -999 -999 -999  
2002-07-01 09:35:21 51°14.151 2°41.059 -999 -999 -999  
2002-07-01 09:36:22 51°14.151 2°41.062 -999 -999 -999  
2002-07-01 09:37:22 51°14.148 2°41.066 -999 -999 -999  
2002-07-01 09:38:21 51°14.147 2°41.067 -999 -999 -999  
2002-07-01 09:39:22 51°14.147 2°41.068 -999 -999 -999  
2002-07-01 09:40:22 51°14.148 2°41.067 -999 -999 -999  
2002-07-01 09:41:21 51°14.146 2°41.07 -999 -999 -999  
2002-07-01 09:42:22 51°14.144 2°41.07 -999 -999 -999  
2002-07-01 09:43:23 51°14.142 2°41.069 -999 -999 -999  
2002-07-01 09:44:21 51°14.144 2°41.066 -999 -999 -999  
2002-07-01 09:45:22 51°14.148 2°41.063 -999 -999 -999  
2002-07-01 09:46:23 51°14.152 2°41.058 -999 -999 -999  
2002-07-01 09:47:22 51°14.149 2°41.055 -999 -999 -999  
2002-07-01 09:48:22 51°14.144 2°41.049 -999 -999 -999  
2002-07-01 09:49:21 51°14.159 2°41.057 -999 -999 -999  
2002-07-01 09:50:23 51°14.173 2°41.086 -999 -999 -999  
2002-07-01 09:51:22 51°14.175 2°41.112 -999 -999 -999  
2002-07-01 09:52:22 51°14.17 2°41.133 -999 -999 -999  
2002-07-01 09:53:23 51°14.151 2°41.158 -999 -999 -999  
2002-07-01 09:54:23 51°14.114 2°41.153 -999 -999 -999  
2002-07-01 09:55:23 51°14.09 2°41.124 -999 -999 -999  
2002-07-01 09:56:22 51°14.085 2°41.101 -999 -999 -999  
2002-07-01 09:57:22 51°14.095 2°41.08 -999 -999 -999  
2002-07-01 09:58:22 51°14.112 2°41.061 -999 -999 -999  
2002-07-01 09:59:21 51°14.13 2°41.04 -999 -999 -999  
2002-07-01 10:00:22 51°14.149 2°41.01 -999 -999 -999  
2002-07-01 10:01:22 51°14.106 2°40.851 -999 -999 -999  
2002-07-01 10:02:22 51°13.943 2°40.642 -999 -999 -999  
2002-07-01 10:03:22 51°13.767 2°40.402 -999 -999 -999  
2002-07-01 10:04:22 51°13.581 2°40.175 -999 -999 -999  
2002-07-01 10:05:21 51°13.4 2°39.947 -999 -999 -999  
2002-07-01 10:06:21 51°13.215 2°39.714 -999 -999 -999  
2002-07-01 10:07:22 51°13.027 2°39.473 -999 -999 -999  
2002-07-01 10:08:21 51°12.852 2°39.232 -999 -999 -999  
2002-07-01 10:09:22 51°12.672 2°38.985 -999 -999 -999  
2002-07-01 10:10:21 51°12.496 2°38.745 -999 -999 -999  
2002-07-01 10:11:22 51°12.314 2°38.494 -999 -999 -999  
2002-07-01 10:12:22 51°12.135 2°38.249 -999 -999 -999  
2002-07-01 10:13:22 51°11.955 2°38.001 -999 -999 -999  
2002-07-01 10:14:21 51°11.783 2°37.751 -999 -999 -999  
2002-07-01 10:15:22 51°11.604 2°37.491 -999 -999 -999  
2002-07-01 10:16:22 51°11.429 2°37.236 -999 -999 -999  
2002-07-01 10:17:21 51°11.257 2°36.989 -999 -999 -999  
2002-07-01 10:18:22 51°11.079 2°36.733 -999 -999 -999  
2002-07-01 10:19:22 51°10.905 2°36.48 -999 -999 -999  
2002-07-01 10:20:22 51°10.731 2°36.227 -999 -999 -999  
2002-07-01 10:21:22 51°10.558 2°35.973 -999 -999 -999  
2002-07-01 10:22:22 51°10.391 2°35.703 -999 -999 -999  
2002-07-01 10:23:22 51°10.226 2°35.43 -999 -999 -999  
2002-07-01 10:24:22 51°10.08 2°35.132 -999 -999 -999  
2002-07-01 10:25:22 51°9.941 2°34.825 -999 -999 -999  
2002-07-01 10:26:22 51°9.801 2°34.515 -999 -999 -999  
2002-07-01 10:27:21 51°9.663 2°34.207 -999 -999 -999  
2002-07-01 10:28:22 51°9.519 2°33.887 -999 -999 -999  
2002-07-01 10:29:21 51°9.381 2°33.576 -999 -999 -999  
2002-07-01 10:30:22 51°9.238 2°33.254 -999 -999 -999  
2002-07-01 10:31:21 51°9.116 2°32.983 -999 -999 -999  
2002-07-01 10:32:21 51°9.025 2°32.776 -999 -999 -999  
2002-07-01 10:33:22 51°8.991 2°32.647 -999 -999 -999  
2002-07-01 10:34:21 51°9.039 2°32.572 -999 -999 -999  
2002-07-01 10:35:21 51°9.086 2°32.607 -999 -999 -999  
2002-07-01 10:36:21 51°9.094 2°32.663 -999 -999 -999  
2002-07-01 10:37:22 51°9.087 2°32.712 -999 -999 -999  
2002-07-01 10:38:22 51°9.072 2°32.753 -999 -999 -999  
2002-07-01 10:39:22 51°9.062 2°32.79 -999 -999 -999  
2002-07-01 10:40:22 51°9.059 2°32.826 -999 -999 -999  
2002-07-01 10:41:22 51°9.061 2°32.855 -999 -999 -999  
2002-07-01 10:42:22 51°9.067 2°32.88 -999 -999 -999  
2002-07-01 10:43:23 51°9.073 2°32.902 -999 -999 -999  
2002-07-01 10:44:22 51°9.079 2°32.923 -999 -999 -999  
2002-07-01 10:45:22 51°9.101 2°32.955 -999 -999 -999  
2002-07-01 10:46:22 51°9.158 2°32.894 -999 -999 -999  
2002-07-01 10:47:22 51°9.145 2°32.766 -999 -999 -999  
2002-07-01 10:48:22 51°9.127 2°32.7 -999 -999 -999  
2002-07-01 10:49:22 51°9.117 2°32.661 -999 -999 -999  
2002-07-01 10:50:22 51°9.114 2°32.634 -999 -999 -999  
2002-07-01 10:51:22 51°9.114 2°32.606 -999 -999 -999  
2002-07-01 10:52:22 51°9.096 2°32.565 -999 -999 -999  
2002-07-01 10:53:22 51°9.072 2°32.563 -999 -999 -999  
2002-07-01 10:54:22 51°9.061 2°32.576 -999 -999 -999  
2002-07-01 10:55:22 51°9.051 2°32.591 -999 -999 -999  
2002-07-01 10:56:22 51°9.042 2°32.606 -999 -999 -999  
2002-07-01 10:57:22 51°9.035 2°32.622 -999 -999 -999  
2002-07-01 10:58:22 51°9.028 2°32.642 -999 -999 -999  
2002-07-01 10:59:22 51°9.023 2°32.667 -999 -999 -999  
2002-07-01 11:00:22 51°9.021 2°32.694 -999 -999 -999  
2002-07-01 11:01:21 51°9.024 2°32.722 -999 -999 -999  
2002-07-01 11:02:22 51°9.036 2°32.758 -999 -999 -999  
2002-07-01 11:03:22 51°9.068 2°32.776 -999 -999 -999  
2002-07-01 11:04:21 51°9.096 2°32.763 -999 -999 -999  
2002-07-01 11:05:21 51°9.12 2°32.74 -999 -999 -999  
2002-07-01 11:06:22 51°9.132 2°32.72 -999 -999 -999  
2002-07-01 11:07:22 51°9.122 2°32.727 -999 -999 -999  
2002-07-01 11:08:22 51°9.117 2°32.727 -999 -999 -999  
2002-07-01 11:09:22 51°9.117 2°32.724 -999 -999 -999  
2002-07-01 11:10:22 51°9.121 2°32.719 -999 -999 -999  
2002-07-01 11:11:22 51°9.123 2°32.71 -999 -999 -999  
2002-07-01 11:12:22 51°9.125 2°32.704 -999 -999 -999  
2002-07-01 11:13:22 51°9.127 2°32.702 -999 -999 -999  
2002-07-01 11:14:22 51°9.128 2°32.702 -999 -999 -999  
2002-07-01 11:15:22 51°9.128 2°32.702 -999 -999 -999  
2002-07-01 11:16:22 51°9.132 2°32.698 -999 -999 -999  
2002-07-01 11:17:22 51°9.145 2°32.679 -999 -999 -999  
2002-07-01 11:18:21 51°9.17 2°32.651 -999 -999 -999  
2002-07-01 11:19:22 51°9.208 2°32.639 -999 -999 -999  
2002-07-01 11:20:22 51°9.234 2°32.718 -999 -999 -999  
2002-07-01 11:21:22 51°9.212 2°32.78 -999 -999 -999  
2002-07-01 11:22:22 51°9.189 2°32.806 -999 -999 -999  
2002-07-01 11:23:22 51°9.171 2°32.817 -999 -999 -999  
2002-07-01 11:24:22 51°9.156 2°32.822 -999 -999 -999  
2002-07-01 11:25:22 51°9.127 2°32.82 -999 -999 -999  
2002-07-01 11:26:22 51°9.076 2°32.759 -999 -999 -999  
2002-07-01 11:27:22 51°8.981 2°32.702 -999 -999 -999  
2002-07-01 11:28:22 51°8.812 2°32.735 -999 -999 -999  
2002-07-01 11:29:22 51°8.621 2°32.835 -999 -999 -999  
2002-07-01 11:30:22 51°8.421 2°32.844 -999 -999 -999  
2002-07-01 11:31:22 51°8.271 2°32.833 -999 -999 -999  
2002-07-01 11:32:22 51°8.131 2°32.832 -999 -999 -999  
2002-07-01 11:33:22 51°8.034 2°32.807 -999 -999 -999  
2002-07-01 11:34:22 51°7.996 2°32.872 -999 -999 -999  
2002-07-01 11:35:22 51°8.019 2°32.965 -999 -999 -999  
2002-07-01 11:36:22 51°8.019 2°33.003 -999 -999 -999  
2002-07-01 11:37:21 51°8.021 2°33.036 -999 -999 -999  
2002-07-01 11:38:22 51°8.036 2°33.068 -999 -999 -999  
2002-07-01 11:39:22 51°8.065 2°33.068 -999 -999 -999  
2002-07-01 11:40:22 51°8.091 2°33.032 -999 -999 -999  
2002-07-01 11:41:21 51°8.101 2°32.994 -999 -999 -999  
2002-07-01 11:42:22 51°8.107 2°32.962 -999 -999 -999  
2002-07-01 11:43:22 51°8.104 2°32.952 -999 -999 -999  
2002-07-01 11:44:21 51°8.092 2°32.955 -999 -999 -999  
2002-07-01 11:45:22 51°8.078 2°32.952 -999 -999 -999  
2002-07-01 11:46:22 51°8.066 2°32.945 -999 -999 -999  
2002-07-01 11:47:22 51°8.056 2°32.937 -999 -999 -999  
2002-07-01 11:48:22 51°8.047 2°32.927 -999 -999 -999  
2002-07-01 11:49:22 51°8.04 2°32.917 -999 -999 -999  
2002-07-01 11:50:22 51°8.033 2°32.906 -999 -999 -999  
2002-07-01 11:51:21 51°8.032 2°32.894 -999 -999 -999  
2002-07-01 11:52:22 51°8.054 2°32.879 -999 -999 -999  
2002-07-01 11:53:22 51°8.083 2°32.923 -999 -999 -999  
2002-07-01 11:54:22 51°8.091 2°32.981 -999 -999 -999  
2002-07-01 11:55:22 51°8.088 2°33.039 -999 -999 -999  
2002-07-01 11:56:22 51°8.079 2°33.076 -999 -999 -999  
2002-07-01 11:57:22 51°8.067 2°33.098 -999 -999 -999  
2002-07-01 11:58:22 51°8.056 2°33.108 -999 -999 -999  
2002-07-01 11:59:22 51°8.046 2°33.111 -999 -999 -999  
2002-07-01 12:00:22 51°8.039 2°33.111 -999 -999 -999  
2002-07-01 12:01:22 51°8.036 2°33.104 -999 -999 -999  
2002-07-01 12:02:22 51°8.04 2°33.085 -999 -999 -999  
2002-07-01 12:03:22 51°8.044 2°33.063 -999 -999 -999  
2002-07-01 12:04:22 51°8.048 2°33.066 -999 -999 -999  
2002-07-01 12:05:22 51°8.102 2°33.073 -999 -999 -999  
2002-07-01 12:06:22 51°8.186 2°33.008 -999 -999 -999  
2002-07-01 12:07:22 51°8.245 2°32.971 -999 -999 -999  
2002-07-01 12:08:22 51°8.279 2°32.927 -999 -999 -999  
2002-07-01 12:09:22 51°8.299 2°32.888 -999 -999 -999  
2002-07-01 12:10:22 51°8.311 2°32.857 -999 -999 -999  
2002-07-01 12:11:22 51°8.318 2°32.831 -999 -999 -999  
2002-07-01 12:12:22 51°8.326 2°32.811 -999 -999 -999  
2002-07-01 12:13:22 51°8.334 2°32.796 -999 -999 -999  
2002-07-01 12:14:22 51°8.341 2°32.782 -999 -999 -999  
2002-07-01 12:15:22 51°8.349 2°32.769 -999 -999 -999  
2002-07-01 12:16:22 51°8.357 2°32.757 -999 -999 -999  
2002-07-01 12:17:21 51°8.364 2°32.745 -999 -999 -999  
2002-07-01 12:18:22 51°8.371 2°32.733 -999 -999 -999  
2002-07-01 12:19:22 51°8.379 2°32.718 -999 -999 -999  
2002-07-01 12:20:22 51°8.387 2°32.7 -999 -999 -999  
2002-07-01 12:21:22 51°8.395 2°32.685 -999 -999 -999  
2002-07-01 12:22:22 51°8.403 2°32.667 -999 -999 -999  
2002-07-01 12:23:22 51°8.412 2°32.633 -999 -999 -999  
2002-07-01 12:24:22 51°8.42 2°32.607 -999 -999 -999  
2002-07-01 12:25:22 51°8.43 2°32.578 -999 -999 -999  
2002-07-01 12:26:22 51°8.44 2°32.551 -999 -999 -999  
2002-07-01 12:27:22 51°8.447 2°32.527 -999 -999 -999  
2002-07-01 12:28:22 51°8.453 2°32.506 -999 -999 -999  
2002-07-01 12:29:22 51°8.459 2°32.486 -999 -999 -999  
2002-07-01 12:30:22 51°8.466 2°32.47 -999 -999 -999  
2002-07-01 12:31:22 51°8.473 2°32.454 -999 -999 -999  
2002-07-01 12:32:22 51°8.482 2°32.439 -999 -999 -999  
2002-07-01 12:33:22 51°8.488 2°32.424 -999 -999 -999  
2002-07-01 12:34:22 51°8.496 2°32.408 -999 -999 -999  
2002-07-01 12:35:22 51°8.503 2°32.389 -999 -999 -999  
2002-07-01 12:36:22 51°8.511 2°32.369 -999 -999 -999  
2002-07-01 12:37:22 51°8.519 2°32.35 -999 -999 -999  
2002-07-01 12:38:22 51°8.526 2°32.332 -999 -999 -999  
2002-07-01 12:39:22 51°8.534 2°32.315 -999 -999 -999  
2002-07-01 12:40:22 51°8.541 2°32.3 -999 -999 -999  
2002-07-01 12:41:22 51°8.548 2°32.285 -999 -999 -999  
2002-07-01 12:42:22 51°8.555 2°32.27 -999 -999 -999  
2002-07-01 12:43:22 51°8.562 2°32.255 -999 -999 -999  
2002-07-01 12:44:22 51°8.569 2°32.239 -999 -999 -999  
2002-07-01 12:45:22 51°8.576 2°32.225 -999 -999 -999  
2002-07-01 12:46:22 51°8.582 2°32.213 -999 -999 -999  
2002-07-01 12:47:22 51°8.586 2°32.203 -999 -999 -999  
2002-07-01 12:48:22 51°8.588 2°32.201 -999 -999 -999  
2002-07-01 12:49:22 51°8.587 2°32.205 -999 -999 -999  
2002-07-01 12:50:22 51°8.587 2°32.205 -999 -999 -999  
2002-07-01 12:51:22 51°8.587 2°32.204 -999 -999 -999  
2002-07-01 12:52:22 51°8.588 2°32.202 -999 -999 -999  
2002-07-01 12:53:22 51°8.587 2°32.207 -999 -999 -999  
2002-07-01 12:54:22 51°8.586 2°32.211 -999 -999 -999  
2002-07-01 12:55:22 51°8.586 2°32.215 -999 -999 -999  
2002-07-01 12:56:22 51°8.587 2°32.218 -999 -999 -999  
2002-07-01 12:57:22 51°8.588 2°32.22 -999 -999 -999  
2002-07-01 12:58:22 51°8.589 2°32.224 -999 -999 -999  
2002-07-01 12:59:22 51°8.589 2°32.229 -999 -999 -999  
2002-07-01 13:00:22 51°8.59 2°32.231 -999 -999 -999  
2002-07-01 13:01:22 51°8.59 2°32.236 -999 -999 -999  
2002-07-01 13:02:22 51°8.591 2°32.24 -999 -999 -999  
2002-07-01 13:03:22 51°8.59 2°32.244 -999 -999 -999  
2002-07-01 13:04:22 51°8.591 2°32.247 -999 -999 -999  
2002-07-01 13:05:22 51°8.591 2°32.252 -999 -999 -999  
2002-07-01 13:06:22 51°8.592 2°32.256 -999 -999 -999  
2002-07-01 13:07:22 51°8.593 2°32.262 -999 -999 -999  
2002-07-01 13:08:22 51°8.593 2°32.268 -999 -999 -999  
2002-07-01 13:09:22 51°8.593 2°32.271 -999 -999 -999  
2002-07-01 13:10:22 51°8.594 2°32.274 -999 -999 -999  
2002-07-01 13:11:22 51°8.597 2°32.276 -999 -999 -999  
2002-07-01 13:12:22 51°8.599 2°32.279 -999 -999 -999  
2002-07-01 13:13:22 51°8.602 2°32.28 -999 -999 -999  
2002-07-01 13:14:22 51°8.605 2°32.279 -999 -999 -999  
2002-07-01 13:15:22 51°8.61 2°32.277 -999 -999 -999  
2002-07-01 13:16:22 51°8.613 2°32.277 -999 -999 -999  
2002-07-01 13:17:22 51°8.615 2°32.278 -999 -999 -999  
2002-07-01 13:18:22 51°8.618 2°32.274 -999 -999 -999  
2002-07-01 13:19:22 51°8.621 2°32.265 -999 -999 -999  
2002-07-01 13:20:22 51°8.624 2°32.26 -999 -999 -999  
2002-07-01 13:21:22 51°8.625 2°32.258 -999 -999 -999  
2002-07-01 13:22:22 51°8.625 2°32.258 -999 -999 -999  
2002-07-01 13:23:22 51°8.626 2°32.261 -999 -999 -999  
2002-07-01 13:24:22 51°8.623 2°32.265 -999 -999 -999  
2002-07-01 13:25:22 51°8.621 2°32.271 -999 -999 -999  
2002-07-01 13:26:22 51°8.618 2°32.277 -999 -999 -999  
2002-07-01 13:27:22 51°8.617 2°32.281 -999 -999 -999  
2002-07-01 13:28:22 51°8.619 2°32.283 -999 -999 -999  
2002-07-01 13:29:22 51°8.618 2°32.287 -999 -999 -999  
2002-07-01 13:30:22 51°8.615 2°32.292 -999 -999 -999  
2002-07-01 13:31:22 51°8.615 2°32.294 -999 -999 -999  
2002-07-01 13:32:22 51°8.614 2°32.295 -999 -999 -999  
2002-07-01 13:33:22 51°8.607 2°32.289 -999 -999 -999  
2002-07-01 13:34:22 51°8.602 2°32.282 -999 -999 -999  
2002-07-01 13:35:22 51°8.599 2°32.266 -999 -999 -999  
2002-07-01 13:36:22 51°8.597 2°32.246 -999 -999 -999  
2002-07-01 13:37:22 51°8.588 2°32.236 -999 -999 -999  
2002-07-01 13:38:22 51°8.588 2°32.245 -999 -999 -999  
2002-07-01 13:39:22 51°8.596 2°32.256 -999 -999 -999  
2002-07-01 13:40:22 51°8.605 2°32.268 -999 -999 -999  
2002-07-01 13:41:22 51°8.615 2°32.28 -999 -999 -999  
2002-07-01 13:42:22 51°8.621 2°32.304 -999 -999 -999  
2002-07-01 13:43:22 51°8.632 2°32.473 -999 -999 -999  
2002-07-01 13:44:22 51°8.694 2°32.812 -999 -999 -999  
2002-07-01 13:45:22 51°8.733 2°33.171 -999 -999 -999  
2002-07-01 13:46:22 51°8.765 2°33.534 -999 -999 -999  
2002-07-01 13:47:22 51°8.79 2°33.905 -999 -999 -999  
2002-07-01 13:48:22 51°8.82 2°34.277 -999 -999 -999  
2002-07-01 13:49:22 51°8.853 2°34.647 -999 -999 -999  
2002-07-01 13:50:22 51°8.88 2°35.016 -999 -999 -999  
2002-07-01 13:51:22 51°8.916 2°35.383 -999 -999 -999  
2002-07-01 13:52:22 51°8.945 2°35.747 -999 -999 -999  
2002-07-01 13:53:22 51°8.979 2°36.121 -999 -999 -999  
2002-07-01 13:54:22 51°9.013 2°36.493 -999 -999 -999  
2002-07-01 13:55:22 51°9.049 2°36.865 -999 -999 -999  
2002-07-01 13:56:22 51°9.067 2°37.141 -999 -999 -999  
2002-07-01 13:57:22 51°9.09 2°37.272 -999 -999 -999  
2002-07-01 13:58:22 51°9.092 2°37.321 -999 -999 -999  
2002-07-01 13:59:22 51°9.094 2°37.354 -999 -999 -999  
2002-07-01 14:00:22 51°9.103 2°37.374 -999 -999 -999  
2002-07-01 14:01:22 51°9.119 2°37.374 -999 -999 -999  
2002-07-01 14:02:22 51°9.132 2°37.368 -999 -999 -999  
2002-07-01 14:03:22 51°9.13 2°37.338 -999 -999 -999  
2002-07-01 14:04:22 51°9.125 2°37.322 -999 -999 -999  
2002-07-01 14:05:21 51°9.124 2°37.318 -999 -999 -999  
2002-07-01 14:06:22 51°9.125 2°37.323 -999 -999 -999  
2002-07-01 14:07:22 51°9.13 2°37.334 -999 -999 -999  
2002-07-01 14:08:23 51°9.135 2°37.345 -999 -999 -999  
2002-07-01 14:09:23 51°9.142 2°37.353 -999 -999 -999  
2002-07-01 14:10:23 51°9.146 2°37.349 -999 -999 -999  
2002-07-01 14:11:23 51°9.145 2°37.342 -999 -999 -999  
2002-07-01 14:12:23 51°9.146 2°37.346 -999 -999 -999  
2002-07-01 14:13:23 51°9.143 2°37.346 -999 -999 -999  
2002-07-01 14:14:23 51°9.139 2°37.346 -999 -999 -999  
2002-07-01 14:15:22 51°9.139 2°37.352 -999 -999 -999  
2002-07-01 14:16:22 51°9.144 2°37.365 -999 -999 -999  
2002-07-01 14:17:22 51°9.151 2°37.375 -999 -999 -999  
2002-07-01 14:18:22 51°9.158 2°37.38 -999 -999 -999  
2002-07-01 14:19:22 51°9.16 2°37.38 -999 -999 -999  
2002-07-01 14:20:23 51°9.145 2°37.362 -999 -999 -999  
2002-07-01 14:21:23 51°9.117 2°37.338 -999 -999 -999  
2002-07-01 14:22:22 51°9.12 2°37.374 -999 -999 -999  
2002-07-01 14:23:22 51°9.079 2°37.482 -999 -999 -999  
2002-07-01 14:24:22 51°9.023 2°37.43 -999 -999 -999  
2002-07-01 14:25:23 51°9.024 2°37.395 -999 -999 -999  
2002-07-01 14:26:22 51°9.035 2°37.377 -999 -999 -999  
2002-07-01 14:27:22 51°9.05 2°37.363 -999 -999 -999  
2002-07-01 14:28:23 51°9.076 2°37.349 -999 -999 -999  
2002-07-01 14:29:23 51°9.11 2°37.349 -999 -999 -999  
2002-07-01 14:30:22 51°9.145 2°37.354 -999 -999 -999  
2002-07-01 14:31:22 51°9.185 2°37.367 -999 -999 -999  
2002-07-01 14:32:23 51°9.228 2°37.392 -999 -999 -999  
2002-07-01 14:33:23 51°9.266 2°37.438 -999 -999 -999  
2002-07-01 14:34:22 51°9.293 2°37.502 -999 -999 -999  
2002-07-01 14:35:23 51°9.307 2°37.577 -999 -999 -999  
2002-07-01 14:36:22 51°9.344 2°37.695 -999 -999 -999  
2002-07-01 14:37:22 51°9.429 2°37.938 -999 -999 -999  
2002-07-01 14:38:23 51°9.553 2°38.282 -999 -999 -999  
2002-07-01 14:39:23 51°9.676 2°38.632 -999 -999 -999  
2002-07-01 14:40:23 51°9.802 2°38.979 -999 -999 -999  
2002-07-01 14:41:23 51°9.925 2°39.329 -999 -999 -999  
2002-07-01 14:42:23 51°10.041 2°39.689 -999 -999 -999  
2002-07-01 14:43:23 51°10.146 2°40.06 -999 -999 -999  
2002-07-01 14:44:23 51°10.253 2°40.427 -999 -999 -999  
2002-07-01 14:45:22 51°10.358 2°40.782 -999 -999 -999  
2002-07-01 14:46:22 51°10.466 2°41.144 -999 -999 -999  
2002-07-01 14:47:22 51°10.572 2°41.513 -999 -999 -999  
2002-07-01 14:48:22 51°10.67 2°41.884 -999 -999 -999  
2002-07-01 14:49:22 51°10.775 2°42.251 -999 -999 -999  
2002-07-01 14:50:23 51°10.881 2°42.627 -999 -999 -999  
2002-07-01 14:51:23 51°10.977 2°43.001 -999 -999 -999  
2002-07-01 14:52:23 51°11.071 2°43.38 -999 -999 -999  
2002-07-01 14:53:23 51°11.166 2°43.755 -999 -999 -999  
2002-07-01 14:54:23 51°11.259 2°44.134 -999 -999 -999  
2002-07-01 14:55:23 51°11.356 2°44.506 -999 -999 -999  
2002-07-01 14:56:22 51°11.448 2°44.874 -999 -999 -999  
2002-07-01 14:57:22 51°11.548 2°45.248 -999 -999 -999  
2002-07-01 14:58:22 51°11.649 2°45.619 -999 -999 -999  
2002-07-01 14:59:22 51°11.749 2°45.99 -999 -999 -999  
2002-07-01 15:00:22 51°11.842 2°46.369 -999 -999 -999  
2002-07-01 15:01:23 51°11.944 2°46.75 -999 -999 -999  
2002-07-01 15:02:23 51°12.046 2°47.126 -999 -999 -999  
2002-07-01 15:03:23 51°12.147 2°47.503 -999 -999 -999  
2002-07-01 15:04:23 51°12.247 2°47.88 -999 -999 -999  
2002-07-01 15:05:23 51°12.348 2°48.257 -999 -999 -999  
2002-07-01 15:06:23 51°12.451 2°48.631 -999 -999 -999  
2002-07-01 15:07:23 51°12.558 2°49.005 -999 -999 -999  
2002-07-01 15:08:23 51°12.653 2°49.388 -999 -999 -999  
2002-07-01 15:09:23 51°12.752 2°49.765 -999 -999 -999  
2002-07-01 15:10:23 51°12.848 2°50.144 -999 -999 -999  
2002-07-01 15:11:23 51°12.951 2°50.518 -999 -999 -999  
2002-07-01 15:12:23 51°13.057 2°50.894 -999 -999 -999  
2002-07-01 15:13:23 51°13.162 2°51.272 -999 -999 -999  
2002-07-01 15:14:23 51°13.282 2°51.637 -999 -999 -999  
2002-07-01 15:15:23 51°13.406 2°51.998 -999 -999 -999  
2002-07-01 15:16:22 51°13.529 2°52.349 -999 -999 -999  
2002-07-01 15:17:22 51°13.648 2°52.713 -999 -999 -999  
2002-07-01 15:18:22 51°13.78 2°53.066 -999 -999 -999  
2002-07-01 15:19:22 51°13.932 2°53.402 -999 -999 -999  
2002-07-01 15:20:23 51°14.107 2°53.721 -999 -999 -999  
2002-07-01 15:21:22 51°14.271 2°54.031 -999 -999 -999  
2002-07-01 15:22:23 51°14.363 2°54.257 -999 -999 -999  
2002-07-01 15:23:23 51°14.388 2°54.327 -999 -999 -999  
2002-07-01 15:24:24 51°14.408 2°54.345 -999 -999 -999  
2002-07-01 15:25:23 51°14.416 2°54.333 -999 -999 -999  
2002-07-01 15:26:23 51°14.434 2°54.352 -999 -999 -999  
2002-07-01 15:27:23 51°14.456 2°54.565 -999 -999 -999  
2002-07-01 15:28:23 51°14.401 2°54.878 -999 -999 -999  
2002-07-01 15:29:23 51°14.312 2°55.161 -999 -999 -999  
2002-07-01 15:30:23 51°14.22 2°55.327 -999 -999 -999  
2002-07-01 15:31:23 51°14.142 2°55.399 -999 -999 -999  
2002-07-01 15:32:23 51°14.08 2°55.449 -999 -999 -999  
2002-07-01 15:33:23 51°14.02 2°55.493 -999 -999 -999  
2002-07-01 15:34:23 51°13.956 2°55.544 -999 -999 -999  
2002-07-01 15:35:23 51°13.887 2°55.597 -999 -999 -999  
2002-07-01 15:36:23 51°13.809 2°55.662 -999 -999 -999  
2002-07-01 15:37:23 51°13.743 2°55.75 -999 -999 -999  
2002-07-01 15:38:23 51°13.695 2°55.849 -999 -999 -999  
2002-07-01 15:39:23 51°13.658 2°55.934 -999 -999 -999  
2002-07-01 15:40:23 51°13.629 2°56.002 -999 -999 -999  
2002-07-01 15:41:23 51°13.609 2°56.063 -999 -999 -999  
2002-07-01 15:42:23 51°13.599 2°56.09 -999 -999 -999  
2002-07-01 15:43:23 51°13.597 2°56.096 -999 -999 -999  
2002-07-01 15:44:22 51°13.597 2°56.097 -999 -999 -999  
2002-07-01 15:45:22 51°13.597 2°56.097 -999 -999 -999